This is the latest recevied weather packets stored in our database for station/object KC3WWU. If no packets are shown the sender has not sent any weather packets the latest 10 day(s).
| Time | Temp. | Humidity | Pressure | Rain* | Wind** | Luminosity | Snow |
|---|---|---|---|---|---|---|---|
| 1777898781 | 9.44° C | 62% | 1009.8 hPa | 0 mm | - | 122 W/m² | - |
| 1777898479 | 9.44° C | 62% | 1009.9 hPa | 0 mm | - | 94 W/m² | - |
| 1777898176 | 9.44° C | 61% | 1009.9 hPa | 0 mm | - | 62 W/m² | - |
| 1777897873 | 8.89° C | 62% | 1009.9 hPa | 0 mm | - | 123 W/m² | - |
| 1777897569 | 8.89° C | 64% | 1010 hPa | 0 mm | - | 87 W/m² | - |
| 1777897265 | 8.33° C | 64% | 1009.9 hPa | 0 mm | - | 123 W/m² | - |
| 1777896961 | 8.89° C | 65% | 1010 hPa | 0 mm | - | 56 W/m² | - |
| 1777896658 | 8.89° C | 63% | 1010 hPa | 0 mm | - | 69 W/m² | - |
| 1777896355 | 8.89° C | 63% | 1009.9 hPa | 0 mm | - | 86 W/m² | - |
| 1777896053 | 8.33° C | 63% | 1009.6 hPa | 0 mm | - | 93 W/m² | - |
| 1777895751 | 7.78° C | 67% | 1009.7 hPa | 0 mm | - | 66 W/m² | - |
| 1777895447 | 7.78° C | 65% | 1009.8 hPa | 0 mm | - | 62 W/m² | - |
| 1777895145 | 7.78° C | 68% | 1009.8 hPa | 0 mm | - | 61 W/m² | - |
| 1777894843 | 7.78° C | 69% | 1009.7 hPa | 0 mm | - | 52 W/m² | - |
| 1777894539 | 7.78° C | 66% | 1009.8 hPa | 0 mm | - | 54 W/m² | - |
| 1777894237 | 7.22° C | 67% | 1010 hPa | 0 mm | - | 40 W/m² | - |
| 1777893933 | 7.22° C | 67% | 1009.8 hPa | 0 mm | - | 45 W/m² | - |
| 1777893630 | 7.22° C | 68% | 1010 hPa | 0 mm | - | 42 W/m² | - |
| 1777893326 | 7.22° C | 69% | 1009.6 hPa | 0 mm | - | 34 W/m² | - |
| 1777893022 | 6.67° C | 71% | 1009.7 hPa | 0 mm | - | 25 W/m² | - |
| 1777892720 | 6.67° C | 70% | 1009.8 hPa | 0 mm | - | 23 W/m² | - |
| 1777892415 | 6.67° C | 73% | 1009.7 hPa | 0 mm | - | 21 W/m² | - |
| 1777892112 | 6.11° C | 69% | 1009.7 hPa | 0 mm | - | 30 W/m² | - |
| 1777891809 | 6.67° C | 72% | 1009.6 hPa | 0 mm | - | 22 W/m² | - |
| 1777891506 | 6.11° C | 69% | 1009.9 hPa | 0 mm | - | 19 W/m² | - |
* Rain latest hour (hover to see other rain measurements)
** Current wind speed in m/s (hover to see current wind gust speed)